Location: Unspecified
(0.0000°N, 0.0000°E)
Time: 09:38:53
(UTC+00:00)

NOSS 8 (E) - Visible Passes

Search period start: 05 June 2023 00:00
Search period end: 15 June 2023 00:00
Orbit: 364 x 1734 km, 63.3° (Epoch: 04 June)

Date Brightness Start Highest point End Pass type
(mag) Time Alt. Az. Time Alt. Az. Time Alt. Az.
05 Jun 9.1 03:54:19 10° NE 03:56:53 13° ENE 03:59:46 10° E visible
06 Jun 6.9 04:38:53 10° N 04:44:25 55° ENE 04:52:16 10° SE visible
07 Jun 8.5 03:39:48 10° NNE 03:43:52 19° ENE 03:48:54 10° ESE visible
07 Jun 6.6 05:27:09 10° NW 05:32:49 42° WSW 05:40:39 10° S visible
08 Jun 6.3 04:25:49 10° NNW 04:31:30 78° ENE 04:39:43 10° SSE visible
09 Jun 7.9 03:25:58 10° NNE 03:30:47 28° ENE 03:37:08 10° SE visible
09 Jun 7.0 05:14:44 10° WNW 05:20:10 31° WSW 05:27:20 10° S visible
10 Jun 6.0 04:12:49 10° NNW 04:18:36 77° WSW 04:26:55 10° SSE visible
11 Jun 7.2 03:12:22 10° N 03:17:38 40° ENE 03:24:55 10° SE visible
11 Jun 7.3 05:02:31 10° WNW 05:07:27 23° WSW 05:13:40 10° SSW visible
12 Jun 8.7 02:19:28 11° E 02:19:28 11° E 02:20:12 10° ESE visible
12 Jun 6.2 04:06:03 55° SW 04:06:03 55° SW 04:13:51 10° SSE visible
13 Jun 8.3 03:10:21 18° SE 03:10:21 18° SE 03:12:21 10° SSE visible
13 Jun 7.9 04:56:46 15° SW 04:56:46 15° SW 04:59:30 10° SSW visible
14 Jun 8.5 03:59:45 13° S 03:59:45 13° S 04:00:31 10° S visible
